Regional Weather Roundup
Issued by NWS Newport/Morehead, NC

Current Version | Previous Version | Text Only | Print | Product List | Glossary On
Versions: 1 2 3 4 5 6 7 8 9 10 11 12 13 14 15 16 17 18 19 20 21 22 23 24 25 26 27 28 29 30 31 32 33 34 35 36 37 38 39 40 41 42 43 44 45 46 47 48 49 50
000 ASUS42 KMHX 271913 RWRMHX WEATHER ROUNDUP FOR EASTERN NORTH CAROLINA NATIONAL WEATHER SERVICE NEWPORT/MOREHEAD CITY NC 300 PM EDT SAT AUG 27 2016 NOTE: "FAIR" INDICATES FEW OR NO CLOUDS BELOW 12,000 FEET WITH NO SIGNIFICANT WEATHER AND/OR OBSTRUCTIONS TO VISIBILITY NCZ015>017-031-032-045>047-102-103-272000- NORTH COAST CITY SKY/WX TMP DP RH WIND PRES REMARKS EDENTON SUNNY 91 73 55 SE14 30.10S HX 100 ELIZABETH CITY MOSUNNY 91 72 53 NE12 30.11S KITTY HAWK CLEAR 89 80 74 N8 30.09F HX 106 MANTEO SUNNY 86 76 71 NE10 30.10F $$ NCZ045>047-081-094-103-104-272000- CENTRAL COAST CITY SKY/WX TMP DP RH WIND PRES REMARKS FRISCO SUNNY 89 76 65 NE7 30.09F HX 100 $$ NCZ095-097-098-100-101-272000- SOUTHERN COAST CITY SKY/WX TMP DP RH WIND PRES REMARKS BEAUFORT MOSUNNY 89 77 67 E8 30.07F HX 101 CEDAR ISLAND NOT AVBL JACKSONVILLE PTSUNNY 92 71 50 E9 30.06F PINEY ISLAND NOT AVBL WILMINGTON SUNNY 89 73 59 MISG 30.08F $$ NCZ011>013-027>030-043-044-078>080-089-090>093-098-272000- COASTAL PLAIN CITY SKY/WX TMP DP RH WIND PRES REMARKS AHOSKIE SUNNY 91 69 47 N10 30.09F CLINTON MOSUNNY 85 80 86 W3 30.09S ELIZABETHTOWN PTSUNNY 92 72 51 SE5 30.07F GOLDSBORO MOSUNNY 95 72 47 NE8 30.06F HX 102 GREENVILLE PTSUNNY 91 72 52 E10 30.09F HAVELOCK MOSUNNY 93 70 46 E6 30.08F KENANSVILLE MOSUNNY 91 73 55 E6 30.08F HX 100 KINSTON SUNNY 93 72 49 E7 30.08F HX 100 NEW BERN MOSUNNY 92 72 51 NE10 30.08F RICHLANDS PTSUNNY 92 75 57 E8 30.08F HX 103 ROCKY MOUNT SUNNY 96 73 47 E6 30.08F HX 105 WASHINGTON SUNNY 92 73 54 NE10 30.08F HX 101 WHITEVILLE MOSUNNY 91 73 53 SE6 30.07F $$ AMZ130-135-150-152-154-156-158-170-250-252-270-ANZ085-086-088-633-658-670-272000- MARINE OBSERVATIONS STATION/POSITION TIME TEMP WIND PRES WAVE SWELL AIR SEA DIR/SP/G HT/PER HT/PER (UTC) (F) (DEG/KT/KT) (MB) (FT/S) (FT/S) CHESAPEAKE LIGHT NOT AVBL 64 E VA BEACH 1850 81 81 50/ 10/ 12 1018.9 2/ 9 2/ 9 DUCK 1800 80 65 20/ 7/ 9 1019.2 2 E DUCK 1811 80 N/A 2/ 9 OREGON INLET 1800 82 81 10/ 8/ 12 1019.3 13E OREGON INLT 1900 82 N/A 3/ 9 3/ 9 HATTERAS CG 1800 84 83 360/ 6/ 8 1018.9 DIAMOND BUOY 1850 83 85 40/ 6/ 8 1019.0 3/10 3/10 CAPE LOOKOUT 1900 83 90/ 10/ 11 1018.5 BEAUFORT LAB 1800 86 82 160/ 8/ 11 1018.4 30 SE NEW RVR IN 1808 83 85 80/ 6/ 8 1019.1 30 SE NEW RVR IN 1825 85 N/A 4/10 2/11 27 SE WRIGHTSVLE 1808 83 85 70/ 6/ 10 1019.3 5 SE WRIGHTSVLE 1808 83 85 100/ 6/ 8 1020.2 225 S CAPE HAT 1850 82 84 60/ 14/ 16 1016.6 5/ 8 3/ 8 41 SE CHARLESTON 1850 83 84 70/ 12/ 16 1017.3 5/10 3/10 $$

USA.gov is the U.S. government's official web portal to all federal, state and local government web resources and services.